SCP
0 0 0 0 0 0 0 0 0 0 0 0 0 0 0 0 0 0 0 0 0 0
0 0 0 0 0 0 0 0 0 0 0 0 0 0 0 0 0 0 0 0 0 0
0 0 0 0 0 0 0 0 0 0 0 0 0 0 0 0 0 0 0 0 0 0
0 0 0 0 0 0 0 0 0 0 0 0 0 0 0 0 0 0 0 0 0 0
0 0 0 0 0 0 0 0 0 0 0 0 0 0 0 0 0 0 0 0 0 0
0 0 0 0 0 0 0 0 0 0 0 0 0 0 0 0 0 0 0 0 0 0
0 0 0 0 0 0 0 0 0 0 0 0 0 0 0 0 0 0 0 0 0 0
0 0 0 0 0 0 0 0 0 0 0 0 0 0 0 0 0 0 0 0 0 0
0 0 0 0 0 0 0 0 0 0 0 0 0 0 0 0 0 0 0 0 0 0
0 0 0 0 0 0 0 0 0 0 0 0 0 0 0 0 0 0 0 0 0 0
0 0 0 0 0 0 0 0 0 0 0 0 0 0 0 0 0 0 0 0 0 0
0 0 0 0 0 0 0 0 0 0 0 0 0 0 0 0 0 0 0 0 0 0
0 0 0 0 0 0 0 0 0 0 0 0 0 0 0 0 0 0 0 0 0 0
0 0 0 0 0 0 0 0 0 0 0 0 0 0 0 0 0 0 0 0 0 0
Wind_Speed_500mb
91 94 93 92 91 87 83 82 80 79 75 76 80 84 85 84 83 82 81 80 78 78
88 94 97 94 92 92 89 85 83 81 78 73 72 73 78 83 85 84 81 81 79 78
78 86 92 92 91 91 89 88 87 85 81 76 71 70 73 77 79 80 79 77 75 73
66 74 80 87 89 90 88 86 86 85 84 80 75 71 73 75 77 78 77 76 73 70
53 63 74 81 85 85 86 86 86 87 85 82 78 75 75 76 77 77 76 74 72 67
43 50 63 72 75 79 81 83 85 86 87 84 82 80 77 76 76 76 74 70 69 68
43 47 51 57 66 70 76 79 85 82 82 82 81 78 77 75 76 74 72 68 68 71
48 47 50 55 59 63 66 73 77 79 82 83 82 79 76 74 74 72 68 71 72 73
54 55 54 55 61 64 68 70 74 78 78 78 79 75 71 69 70 70 74 75 72 70
60 61 59 59 61 66 70 70 73 75 76 76 75 73 74 74 73 73 73 71 67 64
61 63 63 65 66 64 68 73 75 76 77 78 78 75 74 68 68 68 65 63 61 62
61 64 63 67 69 68 68 69 71 74 72 72 70 69 69 65 64 64 65 63 63 65
66 62 65 66 68 74 74 73 72 73 72 72 71 70 69 67 67 69 70 68 65 63
73 74 68 65 69 74 81 81 80 78 77 76 75 73 69 69 68 65 65 65 65 61
Wind_Direction_500mb
245 245 247 248 249 250 250 251 253 255 255 253 250 247 248 250 253 254 255 256 256 257
245 244 247 250 249 249 251 251 251 253 255 253 251 249 248 248 251 253 254 256 257 258
246 246 248 250 248 251 251 248 249 250 251 253 250 249 247 247 249 250 253 254 256 258
249 249 251 250 252 250 249 250 248 249 251 251 250 248 247 247 248 249 251 255 258 258
261 254 250 252 253 254 248 244 246 248 250 251 250 249 246 245 246 248 251 253 248 257
284 268 258 257 255 253 250 246 244 244 248 248 247 246 244 244 246 250 253 253 254 255
301 285 277 268 261 256 251 247 243 238 238 242 244 243 245 244 250 250 253 252 251 252
304 299 284 276 268 260 249 243 242 241 239 242 243 244 245 246 248 249 250 250 251 252
310 302 294 280 268 257 251 248 245 244 244 244 247 248 249 246 246 245 246 248 249 254
313 307 297 288 274 259 253 250 247 246 246 247 248 247 247 243 241 242 244 246 244 246
308 305 302 291 282 271 257 249 247 245 244 245 246 244 244 241 240 242 242 243 241 240
301 300 295 289 284 277 265 255 249 246 244 243 244 243 242 239 237 236 236 236 236 239
303 292 294 290 280 275 267 260 252 248 246 246 246 246 245 242 239 238 238 237 236 234
313 298 286 287 282 269 265 259 255 251 249 247 245 243 241 241 242 239 238 234 233 231
Wind_Speed_850mb
91 94 93 92 91 87 83 82 80 79 75 76 80 84 85 84 83 82 81 80 78 78
88 94 97 94 92 92 89 85 83 81 78 73 72 73 78 83 85 84 81 81 79 78
78 86 92 92 91 91 89 88 87 85 81 76 71 70 73 77 79 80 79 77 75 73
66 74 80 87 89 90 88 86 86 85 84 80 75 71 73 75 77 78 77 76 73 70
53 63 74 81 85 85 86 86 86 87 85 82 78 75 75 76 77 77 76 74 72 67
43 50 63 72 75 79 81 83 85 86 87 84 82 80 77 76 76 76 74 70 69 68
43 47 51 57 66 70 76 79 85 82 82 82 81 78 77 75 76 74 72 68 68 71
48 47 50 55 59 63 66 73 77 79 82 83 82 79 76 74 74 72 68 71 72 73
54 55 54 55 61 64 68 70 74 78 78 78 79 75 71 69 70 70 74 75 72 70
60 61 59 59 61 66 70 70 73 75 76 76 75 73 74 74 73 73 73 71 67 64
61 63 63 65 66 64 68 73 75 76 77 78 78 75 74 68 68 68 65 63 61 62
61 64 63 67 69 68 68 69 71 74 72 72 70 69 69 65 64 64 65 63 63 65
66 62 65 66 68 74 74 73 72 73 72 72 71 70 69 67 67 69 70 68 65 63
73 74 68 65 69 74 81 81 80 78 77 76 75 73 69 69 68 65 65 65 65 61
Wind_Direction_850mb
245 245 247 248 249 250 250 251 253 255 255 253 250 247 248 250 253 254 255 256 256 257
245 244 247 250 249 249 251 251 251 253 255 253 251 249 248 248 251 253 254 256 257 258
246 246 248 250 248 251 251 248 249 250 251 253 250 249 247 247 249 250 253 254 256 258
249 249 251 250 252 250 249 250 248 249 251 251 250 248 247 247 248 249 251 255 258 258
261 254 250 252 253 254 248 244 246 248 250 251 250 249 246 245 246 248 251 253 248 257
284 268 258 257 255 253 250 246 244 244 248 248 247 246 244 244 246 250 253 253 254 255
301 285 277 268 261 256 251 247 243 238 238 242 244 243 245 244 250 250 253 252 251 252
304 299 284 276 268 260 249 243 242 241 239 242 243 244 245 246 248 249 250 250 251 252
310 302 294 280 268 257 251 248 245 244 244 244 247 248 249 246 246 245 246 248 249 254
313 307 297 288 274 259 253 250 247 246 246 247 248 247 247 243 241 242 244 246 244 246
308 305 302 291 282 271 257 249 247 245 244 245 246 244 244 241 240 242 242 243 241 240
301 300 295 289 284 277 265 255 249 246 244 243 244 243 242 239 237 236 236 236 236 239
303 292 294 290 280 275 267 260 252 248 246 246 246 246 245 242 239 238 238 237 236 234
313 298 286 287 282 269 265 259 255 251 249 247 245 243 241 241 242 239 238 234 233 231